Location: ????????
(37.6846°N, 24.0673°E)
Time: 11:49:43
(UTC+00:00)

SeaSat 1 - Pass Details

Date: 14 July 2020
Orbit: 744 x 748 km, 108.0° (Epoch: 10 August)

Event Time Altitude Azimuth Distance (km) Brightness Sun altitude
Rises 00:37:00 0° 19° (NNE) 3,197 7.0 -23.6°
Reaches altitude 10° 00:39:19 10° 15° (NNE) 2,270 5.9 -23.3°
Maximum altitude 00:44:06 52° 300° (WNW) 930 2.8 -22.8°
Enters shadow 00:45:00 45° 264° (W) 1,008 2.8 -22.7°
